Flag for U.S.A. Weather past 2 weeks in Jacksonville, Florida, U.S.A.

Now
64 °F

Passing clouds.


Feels Like: 64 °F
Forecast: 48 / 64 °F
Wind: 12 mph from West

Location: Jacksonville Naval Air Station

Current Time: Mar 28, 2015 at 2:22:57 PM

Latest Report: Mar 28, 2015 at 1:53 PM


Visibility: 10 mi

Pressure: 30.12 "Hg

Humidity: 26%

Dew point: 28 °F

Location of JacksonvilleLocation

Historic Weather in Jacksonville — Graph

°F

Jacksonville temperature yesterday

Maximum temperature yesterday: 78 °F (at 1:53 PM)
Minimum temperature yesterday: 56 °F (at 11:53 PM)
Average temperature yesterday: 69 °F

Past Weeks' High & Low Weather Summary

 TemperatureHumidityPressure
High90 °F (Mar 17, 3:53 PM)91% (Mar 24, 8:53 PM)30.21 "Hg (Mar 24, 8:53 PM)
Low49 °F (Mar 28, 7:53 AM)19% (Mar 16, 3:53 PM)29.71 "Hg (Mar 27, 4:53 PM)
Average71 °F71%30.03 "Hg
* Reported Mar 13 12:53 PM — Mar 28 12:53 PM, Jacksonville, Weather by CustomWeather, © 2015

Note: Actual official high and low records may vary slightly from our data, if they occured in-between our weather recording intervals... More about our weather records

Advertising

Jacksonville weather history for previous 24 hours

 ConditionsComfort  
Time TempWeatherWind HumidityBarometerVisibility
12:53 PM
Sat, Mar 28
61 °FPassing clouds.15 mph29%30.13 "Hg10 mi
11:53 AM60 °FPassing clouds.13 mph31%30.15 "Hg10 mi
10:53 AM57 °FPassing clouds.13 mph37%30.16 "Hg10 mi
9:53 AM54 °FPassing clouds.12 mph43%30.15 "Hg10 mi
8:53 AM52 °FPassing clouds.10 mph50%30.14 "Hg10 mi
7:53 AM49 °FPassing clouds.8 mph61%30.10 "Hg10 mi
6:53 AM50 °FPassing clouds.8 mph61%30.06 "Hg10 mi
5:53 AM50 °FClear.6 mph63%30.03 "Hg10 mi
4:53 AM52 °FClear.8 mph59%30.02 "Hg10 mi
3:53 AM54 °FClear.7 mph57%30.00 "Hg10 mi
2:53 AM55 °FPassing clouds.8 mph57%29.99 "Hg10 mi
1:53 AM57 °FPassing clouds.8 mph58%29.98 "Hg10 mi
12:53 AM57 °FPassing clouds.10 mph62%29.97 "Hg10 mi
11:53 PM
Fri, Mar 27
56 °FPassing clouds.7 mph72%29.95 "Hg10 mi
10:53 PM57 °FPassing clouds.7 mph69%29.93 "Hg10 mi
9:53 PM60 °FPassing clouds.8 mph60%29.90 "Hg10 mi
8:53 PM63 °FPassing clouds.14 mph60%29.86 "Hg10 mi
7:53 PM65 °FPartly sunny.10 mph73%29.80 "Hg10 mi
6:53 PM67 °FBroken clouds.14 mph73%29.76 "Hg10 mi
5:53 PM69 °FLight rain. Mostly cloudy.9 mph84%29.73 "Hg10 mi
4:53 PM76 °FLight rain. Cloudy.15 mph60%29.71 "Hg10 mi
3:53 PM77 °FCloudy.15 mph58%29.71 "Hg10 mi
2:53 PM77 °FBroken clouds.16 mph58%29.72 "Hg10 mi
Weather by CustomWeather, © 2015

See weather overviewHow to use our weather pages